Indiana, PA

12:56 AM EDT on October 24, 2019 (GMT -0400)
Indiana County-Stewart

Weather History for KIDI - August, 2019

Change the Weather History Date:

Wednesday, August 28, 2019

  Actual Average Record
Temperature  
Mean Temperature 70 °F -  
Max Temperature 78 °F 80 °F 95 °F (1948)
Min Temperature 60 °F 59 °F 40 °F (1968)
Cooling Degree Days 5    
Growing Degree Days 20 (Base 50)    
Moisture  
Dew Point 64 °F    
Average Humidity 80    
Maximum Humidity 100    
Minimum Humidity 44    
Precipitation  
Precipitation 0.00 in - - ()
Sea Level Pressure  
Sea Level Pressure 29.95 in    
Wind  
Wind Speed 5 mph ()    
Max Wind Speed 13 mph    
Max Gust Speed 18 mph    
Visibility 8.7 miles    
Events      
Averages and records for this station are not official NWS values.
T = Trace of Precipitation, MM = Missing Value Source: Averaged Metar Reports

Daily Weather History Graph

Daily Weather History Graph

Search for Another Location

Airport or City:

Astronomy

Aug. 28, 2019 Rise Set
Actual Time 6:39 AM EDT 7:55 PM EDT
Civil Twilight 6:11 AM EDT 8:23 PM EDT
Nautical Twilight 5:37 AM EDT 8:57 PM EDT
Astronomical Twilight 5:01 AM EDT 9:32 PM EDT
Moon 4:08 AM EDT (8/28) 7:06 PM EDT (8/28)
Length of Visible Light 14h 12m
Length of Day
13h 15m
Waning Crescent, 5% of the Moon is Illuminated
Aug 28
Waning Crescent
Aug 30
New
Sep 5
First Quarter
Sep 14
Full
Sep 21
Last Quarter

Hourly Weather History & Observations

Time (EDT) Temp. Dew Point Humidity Pressure Visibility Wind Dir Wind Speed Gust Speed Precip Events Conditions
12:15 AM 69.8 °F 68.0 °F 94% 29.98 in 10.0 mi South 9.2 mph - N/A   Overcast
12:35 AM 69.8 °F 68.0 °F 94% 29.98 in 10.0 mi SSE 9.2 mph - N/A   Overcast
12:55 AM 69.8 °F 68.0 °F 94% 29.97 in 10.0 mi South 9.2 mph - N/A   Overcast
1:15 AM 69.8 °F 68.0 °F 94% 29.97 in 10.0 mi South 9.2 mph - N/A   Overcast
1:35 AM 69.8 °F 68.0 °F 94% 29.96 in 5.0 mi SSW 5.8 mph - N/A   Mostly Cloudy
1:55 AM 69.8 °F 68.0 °F 94% 29.96 in 6.0 mi South 5.8 mph - N/A   Overcast
2:15 AM 69.8 °F 68.0 °F 94% 29.95 in 10.0 mi South 4.6 mph - N/A   Overcast
2:35 AM 69.8 °F 68.0 °F 94% 29.95 in 10.0 mi Variable 4.6 mph - N/A   Overcast
2:55 AM 69.8 °F 68.0 °F 94% 29.94 in 10.0 mi South 4.6 mph - N/A   Overcast
3:15 AM 69.8 °F 68.0 °F 94% 29.94 in 10.0 mi South 5.8 mph - N/A   Overcast
3:35 AM 69.8 °F 68.0 °F 94% 29.93 in 10.0 mi South 5.8 mph - N/A   Overcast
3:55 AM 69.8 °F 68.0 °F 94% 29.93 in 10.0 mi Calm Calm - N/A   Overcast
4:15 AM 69.8 °F 68.0 °F 94% 29.93 in 10.0 mi South 5.8 mph - N/A   Overcast
4:35 AM 69.8 °F 68.0 °F 94% 29.93 in 10.0 mi Calm Calm - N/A   Overcast
4:55 AM 69.8 °F 68.0 °F 94% 29.92 in 10.0 mi Calm Calm - N/A   Overcast
5:15 AM 69.8 °F 68.0 °F 94% 29.92 in 8.0 mi Calm Calm - N/A   Overcast
5:35 AM 69.8 °F 68.0 °F 94% 29.92 in 2.0 mi Calm Calm - N/A   Overcast
5:55 AM 68.0 °F 68.0 °F 100% 29.93 in 2.5 mi Calm Calm - N/A   Overcast
6:15 AM 68.0 °F 68.0 °F 100% 29.92 in 4.0 mi Calm Calm - N/A   Mostly Cloudy
6:35 AM 68.0 °F 68.0 °F 100% 29.93 in 1.5 mi South 3.5 mph - N/A   Overcast
6:55 AM 68.0 °F 68.0 °F 100% 29.93 in 10.0 mi Calm Calm - N/A   Overcast
7:15 AM 68.0 °F 68.0 °F 100% 29.93 in 3.0 mi Calm Calm - N/A   Overcast
7:35 AM 68.0 °F 68.0 °F 100% 29.93 in 9.0 mi Calm Calm - N/A   Overcast
7:55 AM 68.0 °F 68.0 °F 100% 29.93 in 0.8 mi Calm Calm - N/A   Overcast
8:15 AM 68.0 °F 68.0 °F 100% 29.92 in 3.0 mi Calm Calm - N/A   Overcast
8:35 AM 68.0 °F 68.0 °F 100% 29.92 in 5.0 mi Calm Calm - N/A   Overcast
8:55 AM 68.0 °F 68.0 °F 100% 29.94 in 0.8 mi Variable 6.9 mph - N/A   Overcast
9:15 AM 68.0 °F 68.0 °F 100% 29.94 in 5.0 mi Calm Calm 11.5 mph N/A   Overcast
9:35 AM 68.0 °F 68.0 °F 100% 29.95 in 6.0 mi North 4.6 mph - N/A   Overcast
9:55 AM 68.0 °F 68.0 °F 100% 29.95 in 9.0 mi NNW 4.6 mph - N/A   Mostly Cloudy
10:15 AM 68.0 °F 68.0 °F 100% 29.95 in 7.0 mi Calm Calm - N/A   Overcast
10:35 AM 68.0 °F 68.0 °F 100% 29.95 in 10.0 mi Calm Calm - N/A   Mostly Cloudy
10:55 AM 69.8 °F 68.0 °F 94% 29.96 in 10.0 mi Calm Calm - N/A   Overcast
11:15 AM 69.8 °F 68.0 °F 94% 29.96 in 10.0 mi Calm Calm - N/A   Mostly Cloudy
11:35 AM 71.6 °F 68.0 °F 88% 29.96 in 10.0 mi Variable 3.5 mph - N/A   Mostly Cloudy
11:55 AM 73.4 °F 68.0 °F 83% 29.96 in 10.0 mi West 4.6 mph - N/A   Scattered Clouds
12:15 PM 73.4 °F 66.2 °F 78% 29.96 in 10.0 mi West 8.1 mph - N/A   Scattered Clouds
12:35 PM 73.4 °F 66.2 °F 78% 29.95 in 10.0 mi West 6.9 mph - N/A   Partly Cloudy
12:55 PM 75.2 °F 66.2 °F 73% 29.95 in 10.0 mi Calm Calm - N/A   Partly Cloudy
1:15 PM 75.2 °F 66.2 °F 73% 29.95 in 10.0 mi WNW 8.1 mph 13.8 mph N/A   Scattered Clouds
1:35 PM 75.2 °F 64.4 °F 69% 29.95 in 10.0 mi WNW 6.9 mph - N/A   Mostly Cloudy
1:55 PM 75.2 °F 64.4 °F 69% 29.94 in 10.0 mi WNW 5.8 mph 12.7 mph N/A   Mostly Cloudy
2:15 PM 77.0 °F 64.4 °F 65% 29.93 in 10.0 mi WNW 6.9 mph - N/A   Partly Cloudy
2:35 PM 77.0 °F 64.4 °F 65% 29.93 in 10.0 mi Variable 6.9 mph - N/A   Partly Cloudy
2:55 PM 75.2 °F 64.4 °F 69% 29.93 in 10.0 mi Variable 5.8 mph - N/A   Mostly Cloudy
3:15 PM 77.0 °F 62.6 °F 61% 29.93 in 10.0 mi WNW 10.4 mph 17.3 mph N/A   Scattered Clouds
3:35 PM 78.8 °F 62.6 °F 57% 29.92 in 10.0 mi WNW 11.5 mph 18.4 mph N/A   Clear
3:55 PM 77.0 °F 62.6 °F 61% 29.92 in 10.0 mi WNW 8.1 mph - N/A   Mostly Cloudy
4:15 PM 77.0 °F 59.0 °F 54% 29.93 in 10.0 mi WNW 12.7 mph - N/A   Mostly Cloudy
4:35 PM 77.0 °F 59.0 °F 54% 29.93 in 10.0 mi NW 10.4 mph 16.1 mph N/A   Mostly Cloudy
4:55 PM 77.0 °F 57.2 °F 50% 29.93 in 10.0 mi WNW 9.2 mph 17.3 mph N/A   Scattered Clouds
5:15 PM 78.8 °F 55.4 °F 44% 29.94 in 10.0 mi NW 11.5 mph - N/A   Partly Cloudy
5:35 PM 78.8 °F 55.4 °F 44% 29.94 in 10.0 mi WNW 11.5 mph - N/A   Clear
5:55 PM 77.0 °F 55.4 °F 47% 29.94 in 10.0 mi NW 8.1 mph 15.0 mph N/A   Clear
6:15 PM 77.0 °F 55.4 °F 47% 29.95 in 10.0 mi NW 10.4 mph - N/A   Clear
6:35 PM 75.2 °F 55.4 °F 50% 29.95 in 10.0 mi WNW 9.2 mph 15.0 mph N/A   Partly Cloudy
6:55 PM 75.2 °F 55.4 °F 50% 29.95 in 10.0 mi WNW 8.1 mph - N/A   Clear
7:15 PM 73.4 °F 55.4 °F 53% 29.96 in 10.0 mi NW 8.1 mph - N/A   Clear
7:35 PM 71.6 °F 55.4 °F 57% 29.97 in 10.0 mi NW 5.8 mph - N/A   Clear
7:55 PM 69.8 °F 55.4 °F 60% 29.97 in 10.0 mi NW 4.6 mph - N/A   Clear
8:15 PM 69.8 °F 55.4 °F 60% 29.98 in 10.0 mi NW 3.5 mph - N/A   Clear
8:35 PM 68.0 °F 55.4 °F 64% 29.98 in 10.0 mi Calm Calm - N/A   Clear
8:55 PM 64.4 °F 59.0 °F 83% 29.99 in 10.0 mi Calm Calm - N/A   Clear
9:15 PM 62.6 °F 59.0 °F 88% 29.99 in 10.0 mi Calm Calm - N/A   Clear
9:35 PM 62.6 °F 59.0 °F 88% 30.00 in 10.0 mi Calm Calm - N/A   Partly Cloudy
9:55 PM 62.6 °F 57.2 °F 82% 30.00 in 10.0 mi NW 4.6 mph - N/A   Partly Cloudy
10:15 PM 66.2 °F 55.4 °F 68% 30.01 in 10.0 mi NW 4.6 mph - N/A   Scattered Clouds
10:35 PM 66.2 °F 55.4 °F 68% 30.01 in 10.0 mi NW 4.6 mph - N/A   Scattered Clouds
10:55 PM 66.2 °F 55.4 °F 68% 30.01 in 10.0 mi Variable 4.6 mph - N/A   Mostly Cloudy
11:15 PM 66.2 °F 55.4 °F 68% 30.01 in 10.0 mi WNW 5.8 mph - N/A   Overcast
11:35 PM 66.2 °F 55.4 °F 68% 30.02 in 10.0 mi WNW 5.8 mph - N/A   Mostly Cloudy
11:55 PM 60.8 °F 55.4 °F 82% 30.02 in 10.0 mi Calm Calm - N/A   Overcast